Abilene, TX

4:05 AM CST on December 15, 2019 (GMT -0600)
Abilene Regional

Weather History for KABI - November, 2019

Change the Weather History Date:

Thursday, November 14, 2019

  Actual Average Record
Temperature  
Mean Temperature 45 °F 55 °F  
Max Temperature 58 °F 67 °F 84 °F (1989)
Min Temperature 31 °F 44 °F 14 °F (1976)
Degree Days  
Heating Degree Days 20 10  
Month to date heating degree days 192 112  
Since 1 July heating degree days 385 216  
Cooling Degree Days 0 0  
Month to date cooling degree days 4 15  
Year to date cooling degree days 2907 2404  
Moisture  
Dew Point 30 °F    
Average Humidity 61    
Maximum Humidity 96    
Minimum Humidity 26    
Precipitation  
Precipitation 0.00 in 0.05 in 1.54 in (1954)
Month to date precipitation 1.77 0.78  
Year to date precipitation 21.93 22.96  
Sea Level Pressure  
Sea Level Pressure 30.29 in    
Wind  
Wind Speed 8 mph (North)    
Max Wind Speed 20 mph    
Max Gust Speed 25 mph    
Visibility 7 miles    
Events Fog    
T = Trace of Precipitation, MM = Missing Value Source: NWS Daily Summary

Daily Weather History Graph

Daily Weather History Graph

Search for Another Location

Airport or City:

Astronomy

Nov. 14, 2019 Rise Set
Actual Time 7:07 AM CST 5:38 PM CST
Civil Twilight 6:41 AM CST 6:04 PM CST
Nautical Twilight 6:11 AM CST 6:34 PM CST
Astronomical Twilight 5:42 AM CST 7:03 PM CST
Moon 7:30 PM CST (11/14) 9:00 AM CST (11/14)
Length of Visible Light 11h 23m
Length of Day
10h 31m
Waning Gibbous, 95% of the Moon is Illuminated
Nov 14
Waning Gibbous
Nov 19
Last Quarter
Nov 26
New
Dec 4
First Quarter
Dec 11
Full

Hourly Weather History & Observations

Time (CST) Temp. Windchill Dew Point Humidity Pressure Visibility Wind Dir Wind Speed Gust Speed Precip Events Conditions
12:52 AM 39.9 °F - 35.1 °F 83% 30.08 in 10.0 mi Calm Calm - N/A   Clear
1:52 AM 39.9 °F 37.8 °F 34.0 °F 79% 30.09 in 10.0 mi West 3.5 mph - N/A   Clear
2:52 AM 37.9 °F 33.5 °F 34.0 °F 86% 30.10 in 10.0 mi NNW 5.8 mph - N/A   Clear
3:52 AM 36.0 °F 33.3 °F 30.9 °F 82% 30.13 in 10.0 mi WNW 3.5 mph - N/A   Clear
4:52 AM 34.0 °F 31.0 °F 30.9 °F 89% 30.17 in 10.0 mi South 3.5 mph - N/A   Clear
5:52 AM 30.9 °F - 28.9 °F 92% 30.20 in 8.0 mi Calm Calm - N/A   Partly Cloudy
6:06 AM 33.1 °F - 28.9 °F 85% 30.20 in 9.0 mi Calm Calm - N/A   Mostly Cloudy
6:29 AM 34.0 °F 29.8 °F 30.9 °F 89% 30.21 in 0.2 mi NW 4.6 mph - N/A Fog Fog
6:52 AM 30.9 °F 23.5 °F 28.9 °F 92% 30.22 in 1.5 mi NNW 8.1 mph - N/A   Overcast
6:54 AM 30.9 °F 22.8 °F 28.9 °F 92% 30.21 in 4.0 mi NNW 9.2 mph - N/A   Mostly Cloudy
7:28 AM 33.1 °F 26.9 °F 30.9 °F 92% 30.24 in 1.5 mi NNW 6.9 mph - N/A   Mostly Cloudy
7:30 AM 33.1 °F 26.9 °F 30.9 °F 92% 30.24 in 0.8 mi NNW 6.9 mph - N/A   Mist
7:40 AM 33.1 °F 28.7 °F 30.9 °F 92% 30.25 in 0.2 mi North 4.6 mph - N/A Fog Fog
7:52 AM 34.0 °F 28.0 °F 32.0 °F 92% 30.27 in 0.2 mi NNW 6.9 mph - N/A Fog Fog
7:58 AM 34.0 °F 27.2 °F 32.0 °F 92% 30.26 in 0.0 mi NNW 8.1 mph - N/A Fog Fog
8:11 AM 35.1 °F 28.6 °F 33.1 °F 92% 30.28 in 0.0 mi North 8.1 mph - N/A Fog Fog
8:19 AM 34.0 °F 26.6 °F 33.1 °F 96% 30.28 in 0.5 mi North 9.2 mph - N/A Fog Fog
8:28 AM 35.1 °F 27.9 °F 33.1 °F 92% 30.28 in 2.0 mi North 9.2 mph - N/A   Mostly Cloudy
8:35 AM 35.1 °F 26.9 °F 34.0 °F 96% 30.29 in 9.0 mi North 11.5 mph - N/A   Mostly Cloudy
8:52 AM 35.1 °F 25.5 °F 32.0 °F 89% 30.31 in 10.0 mi North 15.0 mph - N/A   Clear
9:52 AM 42.1 °F 35.2 °F 30.9 °F 65% 30.34 in 10.0 mi NNE 12.7 mph - N/A   Clear
10:52 AM 48.9 °F - 28.9 °F 46% 30.35 in 10.0 mi North 13.8 mph - N/A   Clear
11:52 AM 53.1 °F - 21.9 °F 30% 30.35 in 10.0 mi NNE 16.1 mph 21.9 mph N/A   Clear
12:52 PM 55.9 °F - 21.9 °F 27% 30.32 in 10.0 mi North 16.1 mph 23.0 mph N/A   Clear
1:52 PM 55.9 °F - 26.1 °F 32% 30.31 in 10.0 mi NNE 13.8 mph 24.2 mph N/A   Clear
2:52 PM 57.0 °F - 27.0 °F 32% 30.31 in 10.0 mi North 16.1 mph 24.2 mph N/A   Clear
3:52 PM 57.0 °F - 30.0 °F 36% 30.32 in 10.0 mi North 10.4 mph - N/A   Clear
4:52 PM 55.0 °F - 28.9 °F 37% 30.33 in 10.0 mi NNE 13.8 mph - N/A   Clear
5:52 PM 50.0 °F - 30.0 °F 46% 30.36 in 10.0 mi NNE 6.9 mph - N/A   Clear
6:52 PM 48.0 °F - 30.0 °F 50% 30.38 in 10.0 mi NNE 5.8 mph - N/A   Clear
7:52 PM 45.0 °F 42.6 °F 30.0 °F 56% 30.41 in 10.0 mi NNE 4.6 mph - N/A   Clear
8:52 PM 43.0 °F 39.5 °F 30.0 °F 60% 30.43 in 10.0 mi North 5.8 mph - N/A   Clear
9:52 PM 43.0 °F 40.3 °F 28.9 °F 58% 30.42 in 10.0 mi North 4.6 mph - N/A   Clear
10:52 PM 37.0 °F - 28.9 °F 73% 30.43 in 10.0 mi Calm Calm - N/A   Clear
11:52 PM 35.1 °F - 28.0 °F 76% 30.43 in 10.0 mi Calm Calm - N/A   Clear